Overview Statistics Trail Chart Weather Telemetry Raw packets
 

This is the latest recevied weather packets stored in our database for station/object WX4SGA. If no packets are shown the sender has not sent any weather packets the latest 10 day(s).

<< 90 91 92 93 94 95 96 >>
Time Temp. Humidity Pressure Rain* Wind** Luminosity Snow
1787946922 28.33° C 88% 1016.3 hPa 0 mm - 155 W/m² -
1787946629 27.78° C 85% 1016.3 hPa 0 mm - 156 W/m² -
1787946316 27.78° C 84% 1016.3 hPa 0 mm - 156 W/m² -
1787946016 28.33° C 83% 1016.3 hPa 0 mm - 155 W/m² -
1787945715 28.33° C 84% 1016.3 hPa 0 mm - 157 W/m² -
1787945411 27.78° C 83% 1016.3 hPa 0 mm - 162 W/m² -
1787945106 27.78° C 84% 1016.3 hPa 0 mm - 165 W/m² -
1787944804 27.78° C 83% 1016.3 hPa 0 mm - 168 W/m² -
1787944499 27.22° C 83% 1016.3 hPa 0 mm - 171 W/m² -
1787944194 27.78° C 84% 1016.3 hPa 0 mm - 172 W/m² -
1787943894 27.78° C 83% 1016.3 hPa 0 mm - 171 W/m² -
1787943589 27.78° C 83% 1016.6 hPa 0 mm - 172 W/m² -
1787943284 28.33° C 82% 1016.6 hPa 0 mm - 182 W/m² -
1787942984 27.78° C 81% 1016.6 hPa 0 mm - 194 W/m² -
1787942680 28.33° C 82% 1016.9 hPa 0 mm - 214 W/m² -
1787942379 28.33° C 81% 1016.9 hPa 0 mm - 237 W/m² -
1787942074 28.33° C 80% 1016.9 hPa 0 mm - 252 W/m² -
1787941770 28.33° C 79% 1016.9 hPa 0 mm - 272 W/m² -
1787941468 28.33° C 79% 1016.9 hPa 0 mm - 299 W/m² -
1787941168 27.78° C 80% 1017.3 hPa 0 mm - 367 W/m² -
1787940863 27.78° C 80% 1017.3 hPa 0 mm - 258 W/m² -
1787940561 28.89° C 80% 1017.6 hPa 0 mm - 206 W/m² -
1787940260 30° C 80% 1017.6 hPa 0 mm - 154 W/m² -
1787939956 30° C 75% 1017.6 hPa 0 mm - 196 W/m² -
1787939655 30° C 80% 1017.6 hPa 0 mm - 317 W/m² -

* Rain latest hour (hover to see other rain measurements)
** Current wind speed in m/s (hover to see current wind gust speed)